Home   Weather   Alameda   Past weeks
Flag for USA

Past Weather in Alameda, California, USA — Yesterday and Last 2 Weeks

Currently: 48 °F. Fog. (Weather station: Meadows Field, USA). See more current weather

Past Weather in Alameda — Graph

°F

Alameda Temperature Yesterday

Maximum temperature yesterday: 48 °F (at 11:54 am)
Minimum temperature yesterday: 43 °F (at 1:01 am)
Average temperature yesterday: 47 °F

High & Low Weather Summary for the Past Weeks

 TemperatureHumidityPressure
High76 °F (Dec 1, 1:54 pm)100% (Nov 21, 5:54 am)30.40 "Hg (Nov 21, 5:54 am)
Low37 °F (Nov 25, 6:54 am)21% (Nov 25, 1:54 pm)29.96 "Hg (Nov 23, 3:54 pm)
Average53 °F67%30.17 "Hg
* Reported Nov 20 11:54 pm — Dec 5 11:54 pm, Alameda. Weather by CustomWeather, © 2021

Note: Actual official high and low records may vary slightly from our data, if they occured in-between our weather recording intervals... More about our weather records

Alameda Weather History for the Previous 24 Hours

Scroll right to see more
 ConditionsComfort  
Time TempWeatherWind HumidityBarometerVisibility
11:54 pm
Sun, Dec 5
48 °FFog.No wind89%30.24 "Hg2 mi
10:54 pm48 °FFog.No wind89%30.24 "Hg2 mi
9:54 pm48 °FFog.No wind89%30.22 "Hg2 mi
8:54 pm48 °FFog.No wind89%30.21 "Hg2 mi
7:54 pm48 °FFog.No wind89%30.22 "Hg2 mi
6:54 pm48 °FFog.No wind89%30.23 "Hg2 mi
5:54 pm48 °FFog.6 mph93%30.24 "Hg2 mi
4:54 pm48 °FFog.No wind93%30.24 "Hg2 mi
3:54 pm48 °FFog.5 mph93%30.24 "Hg2 mi
2:54 pm48 °FFog.5 mph93%30.23 "Hg2 mi
1:54 pm48 °FFog.7 mph89%30.23 "Hg2 mi
12:54 pm48 °FFog.3 mph89%30.25 "Hg1 mi
11:54 am48 °FFog.No wind89%30.28 "Hg1 mi
11:16 am47 °FFog.3 mph93%30.29 "Hg1 mi
10:54 am47 °FFog.No wind93%30.31 "Hg1 mi
10:23 am47 °FFog.3 mph93%30.31 "Hg1 mi
9:54 am47 °FFog.No wind93%30.31 "Hg1 mi
9:35 am47 °FFog.No wind97%30.31 "Hg1 mi
9:12 am46 °FFog.7 mph96%30.31 "Hg1 mi
8:54 am46 °FFog.7 mph96%30.31 "Hg0 mi
7:54 am46 °FFog.3 mph100%30.29 "Hg0 mi
7:26 am46 °FFog.3 mph100%30.29 "Hg0 mi
6:54 am46 °FFog.No wind100%30.29 "Hg1 mi
6:33 am46 °FFog.No wind96%30.28 "Hg1 mi
6:02 am46 °FFog.3 mph96%30.28 "Hg1 mi
5:54 am46 °FFog.5 mph96%30.27 "Hg0 mi
4:54 am45 °FFog.No wind100%30.26 "Hg0 mi
3:54 am45 °FFog.5 mph100%30.26 "Hg0 mi
3:09 am45 °FFog.3 mph100%30.27 "Hg0 mi
2:54 am45 °FFog.3 mph100%30.27 "Hg0 mi
2:37 am45 °FFog.5 mph100%30.27 "Hg0 mi
1:54 am44 °FFog.5 mph100%30.27 "Hg0 mi
1:01 am43 °FFog.7 mph97%30.27 "Hg0 mi
Weather by CustomWeather, © 2021

See weather overview